Location: Ay?beleni
(36.6500°N, 30.3000°E)
Time: 00:16:08
(UTC+00:00)

Terra - Pass Details

Date: 09 April 2020
Orbit: 701 x 703 km, 98.2° (Epoch: 06 June)

Event Time Altitude Azimuth Distance (km) Brightness Sun altitude
Exits shadow 18:54:37 12° 33° (NNE) 2,064 4.2 -27.7°
Drops below altitude 10° 18:55:05 10° 28° (NNE) 2,174 4.4 -27.8°
Sets 18:58:07 0° 7° (N) 3,097 5.5 -28.3°
